This demonstration page uses our WeatherBlox Daily Observations layout. Learn more.

39.08367, -84.50855

Hourly Observations for June 13, 2019

Temp ( °F °C ) Dew Point ( °F °C ) Humidity (%) Winds ( mph kmh ) Pressure ( in mb ) Visibility ( mi km ) Precip ( " mm )
12:53 am 00:53 Mostly Cloudy 63 17.2 62 16.7 97 97 S 12 19 29.77 1008 10 16.09344 0 0
1:02 am 01:02 Mostly Cloudy 63 17.2 62 16.7 97 97 S 9 15 29.8 1009 10 16.09344 0 0
1:31 am 01:31 Mostly Cloudy 63 17.2 61 16.1 93 93 S 7 11 29.77 1008 10 16.09344 0 0
1:53 am 01:53 Partly Cloudy 62 16.7 61 16.1 96 96 SSW 5 7 29.77 1008 10 16.09344 0 0
2:53 am 02:53 Cloudy 63 17.2 61 16.1 93 93 WSW 8 13 29.74 1007 10 16.09344 0 0
3:53 am 03:53 Cloudy 62 16.7 59 15 90 90 Calm 29.74 1007 10 16.09344 0.001 0.001
4:53 am 04:53 Cloudy 61 16.1 58 14.4 90 90 SSW 5 7 29.74 1007 10 16.09344 0 0
5:53 am 05:53 Mostly Cloudy 59 15 56 13.3 90 90 SSW 8 13 29.74 1007 10 16.09344 0 0
6:53 am 06:53 Mostly Cloudy 60 15.6 54 12.2 80 80 SW 8 13 29.74 1007 10 16.09344 0 0
7:53 am 07:53 Cloudy 61 16.1 55 12.8 81 81 SSW 7 11 29.77 1008 10 16.09344 0 0
8:51 am 08:51 Cloudy 61 16 55 13 83 83 SSW 10 17 29.77 1008 10 16.09344 0 0
8:53 am 08:53 Cloudy 61 16.1 56 13.3 84 84 SW 9 15 29.77 1008 10 16.09344 0 0
9:53 am 09:53 Cloudy 59 15 54 12.2 83 83 W 18 30 29.77 1008 10 16.09344 0.05 1.27
10:53 am 10:53 Cloudy 60 15.6 50 10 70 70 W 18 30 29.8 1009 10 16.09344 0 0
11:53 am 11:53 Cloudy 62 16.7 49 9.4 62 62 WSW 17 28 29.83 1010 10 16.09344 0 0
12:53 pm 12:53 Cloudy 64 17.8 48 8.9 56 56 W 24 39 29.85 1011 10 16.09344 0 0
1:53 pm 13:53 Cloudy 66 18.9 48 8.9 52 52 W 25 41 29.85 1011 10 16.09344 0 0
2:53 pm 14:53 Mostly Cloudy 64 17.8 49 9.4 58 58 W 18 30 29.88 1012 10 16.09344 0 0
3:53 pm 15:53 Partly Cloudy 68 20 46 7.8 45 45 WSW 24 39 29.88 1012 10 16.09344 0 0
4:53 pm 16:53 Mostly Cloudy 67 19.4 45 7.2 45 45 WSW 26 43 29.88 1012 10 16.09344 0 0
5:53 pm 17:53 Cloudy 58 14.4 50 10 75 75 W 8 13 29.94 1014 10 16.09344 0.03 0.762
6:53 pm 18:53 Partly Cloudy 62 16.7 51 10.6 67 67 W 9 15 29.97 1015 10 16.09344 0.001 0.001
7:53 pm 19:53 Mostly Sunny 62 16.7 47 8.3 58 58 W 13 20 30 1016 10 16.09344 0 0
8:53 pm 20:53 Partly Cloudy 61 16.1 45 7.2 56 56 WNW 8 13 30 1016 10 16.09344 0 0
9:53 pm 21:53 Mostly Clear 59 15 46 7.8 62 62 Calm 30.03 1017 10 16.09344 0 0
10:53 pm 22:53 Clear 52 11.1 48 8.9 86 86 S 5 7 30.06 1018 10 16.09344 0 0
11:53 pm 23:53 Partly Cloudy 52 11.1 48 8.9 86 86 SSW 6 9 30.06 1018 10 16.09344 0 0

Powered by AerisWeather